Location: Erskine
(52.3216°N, 112.8806°W)
Time: 23:14:50
(UTC+00:00)

MOZHAYETS 4 - Pass Details

Date: 05 December 2023
Orbit: 654 x 672 km, 98.3° (Epoch: 01 March)

Event Time Altitude Azimuth Distance (km) Brightness Sun altitude
Rises 01:42:39 0° 1° (N) 3,034 11.0 -20.6°
Reaches altitude 10° 01:46:21 10° 331° (NNW) 2,117 10.5 -21.1°
Maximum altitude 01:47:57 12° 310° (NW) 1,999 10.7 -21.4°
Drops below altitude 10° 01:49:34 10° 289° (WNW) 2,115 11.1 -21.6°
Sets 01:53:15 0° 259° (WSW) 3,025 12.6 -22.2°
